Domov               UVHVVR             MKGP            O straneh              
ZDRAVSTVENO VARSTVO RASTLIN
  MREŽA AGROMET. POSTAJ
 ► PROGNOSTIČNA OBVESTILA
AGROMETEOROLOŠKI PODATKI -
ARSO
OBVLADOVANJE TVEGANJ ZARADI
NEUGODNIH VREMENSKIH RAZMER
  ► NARAVNE NESREČE
  ► SUŠA/MOČA
  ► NAMAKANJE
  ► ŽLED (gozdarstvo)
KARTOGRAFSKI PRIKAZI
SPLETNE POVEZAVE
PROJEKTI IN PUBLIKACIJE

AGROMETEOROLOŠKA MREŽA: VREMENSKE POSTAJE IN FENOLOŠKA OPAZOVANJA

Pregled podatkov za lokacijo Zavrhek, meteorološka postaja 37907

Pregled senzorjev na lokaciji

ID Ime Zadnja
vrednost
Datum
zadnje
spremembe
Tip
senzorja
1989 Temperatura 2 m ( °C) 20,54 °C 24.6.2017 22:00 50YA
1990 Relativna vlaga 2 m (% RH) 84,81 % RH 24.6.2017 22:00 50YA
1991 Padavine 0.2 mm (mm) 0 mm 24.6.2017 22:00 Rain-O-Matic

Pregled podatkov zadnjih 24 ur

Zap.
št.
Datum in čas Zavrhek
Padavine
0.2
mm
Relativna
vlaga
2
m
Temperatura
2
m
0 24.6.2017 21:00 0 84,81 20,54
1 24.6.2017 20:30 0 80,66 21,64
2 24.6.2017 20:00 0 75,7 22,83
3 24.6.2017 19:30 0 68,72 24,66
4 24.6.2017 19:00 0 60,95 26,72
5 24.6.2017 18:30 0 55,53 28,79
6 24.6.2017 18:00 0 52,09 29,5
7 24.6.2017 17:30 0 46,52 30,26
8 24.6.2017 17:00 0 45,05 30,5
9 24.6.2017 16:30 0 44,13 31,65
10 24.6.2017 16:00 0 44,59 31,58
11 24.6.2017 15:30 0 42,17 32,06
12 24.6.2017 15:00 0 40,71 32,23
13 24.6.2017 14:30 0 40,54 32,55
14 24.6.2017 14:00 0 40,59 32,55
15 24.6.2017 13:30 0 46,86 31,09
16 24.6.2017 13:00 0 46,28 31,45
17 24.6.2017 12:30 0 43,61 32,41
18 24.6.2017 12:00 0 48,79 31,53
19 24.6.2017 11:30 0 48,33 31,06
20 24.6.2017 11:00 0 49,08 30,43
21 24.6.2017 10:30 0 47,91 30,21
22 24.6.2017 10:00 0 45,93 29,38
23 24.6.2017 09:30 0 47,37 28,84
24 24.6.2017 09:00 0 61,12 27,37
25 24.6.2017 08:30 0 63,59 26,45
26 24.6.2017 08:00 0 66,81 25,64
27 24.6.2017 07:30 0 70,74 24,66
28 24.6.2017 07:00 0 75,53 22,98
29 24.6.2017 06:30 0 83,3 20,9
30 24.6.2017 06:00 0 86,74 20,05
31 24.6.2017 05:30 0 92,6 18,88
32 24.6.2017 05:00 0 94,02 18,63
33 24.6.2017 04:30 0 92,94 18,9
34 24.6.2017 04:00 0 90,4 19,44
35 24.6.2017 03:30 0 88,6 19,85
36 24.6.2017 03:00 0 90,38 19,76
37 24.6.2017 02:30 0 94,92 19,19
38 24.6.2017 02:00 0 94,97 18,97
39 24.6.2017 01:30 0 94,51 19,24
40 24.6.2017 01:00 0 95,8 18,8
41 24.6.2017 00:30 0 94,77 18,95
42 24.6.2017 00:00 0 93,97 19,15
43 23.6.2017 23:30 0 92,41 19,39
44 23.6.2017 23:00 0 89,28 20,02
© 2011 Ministrstvo za kmetijstvo, gozdarstvo in prehrano. Vse pravice pridržane.